2019-032C (44312 NORAD) Tracking and Keplerian Element Data

This shows tracking and keplerian element data for the satellite.

Feedback or suggestion? Click here.




ElementValue
Catalog44312
Name2019-032C
Epoch Orbit450
Epoch Day186.17478127
Epoch Year2019
RAAN143.3814
Inclination44.985
Eccentricity0.0012416
Argument of Perigee109.8193
Mean Anonmoly250.4022
Mean Motion15.00549857
Decay Rate-8.5E-07
L11 44312U 19032C 19186.17478127 -.00000085 00000-0 11321-4 0 9997
L22 44312 44.9850 143.3814 0012416 109.8193 250.4022 15.00549857 4503

Live tracking and technical data element details for 2019-032C (NORAD 44312). 2019-032C can be tracked NOW for your location showing map with azimuth and elevation plus other details from your city location.

Track the satellite on the map from your city or location and see movement details for azimuth, elevation, latitude, longitude, range, height, and movement on the map or in text.







IsCatalogInMostPopularTable: catalog: 44312, numindb: 10
Update: records affected: 1



GetName: 44312 2019-032C

Hit Count: updated at: Fri, 19 Jul 2019 08:43:09 GMT